Station PILM4 - Passage Island, MI Image indicating link to RSS feed of recent meteorological observations for station PILM4


Conditions at PILM4 as of
(3:00 pm EDT)
1900 GMT on 04/16/2024:
     

Click on the graph icon in the table below to see a time series plot of the last five days of that observation.

5-day plot - Wind Direction Wind Direction (WDIR): E ( 80 deg true )
5-day plot - Wind Speed Wind Speed (WSPD): 16 kts
5-day plot - Wind Gust Wind Gust (GST): 18 kts
5-day plot - Atmospheric Pressure Atmospheric Pressure (PRES):30.28 in
5-day plot - Pressure Tendency Pressure Tendency (PTDY):-0.02 in ( Falling )
5-day plot - Air Temperature Air Temperature (ATMP): 37.4 °F
5-day plot - Wind Chill Wind Chill (CHILL): 27.5 °F
5-day plot - Wind Speed at 10 Meters Wind Speed at 10 meters (WSPD10M): 16 kts
5-day plot - Wind Speed at 20 Meters Wind Speed at 20 meters (WSPD20M): 17 kts
5-day plot -  Wind Speed, Wind Gust and Atmospheric Pressure Combined plot of Wind Speed, Gust, and Air Pressure
Continuous Winds
TIME
(EDT)
5-day plot - Wind Direction WDIR 5-day plot - Wind Speed WSPD
3:00 pmE ( 82 deg ) 17 kts
2:50 pmE ( 80 deg ) 18 kts
2:40 pmE ( 84 deg ) 18 kts
2:30 pmE ( 84 deg ) 18 kts
2:20 pmE ( 84 deg ) 19 kts
2:10 pmE ( 86 deg ) 18 kts
 
Peak gust during the measurement hour
TIME
(EDT)
5-day plot - Gust Direction GDR 5-day plot - Gust Speed GST
2:18 pmE ( 80 deg ) 22 kts
Previous observations
TIME
(EDT)
5-day plot - Wind Direction
WDIR
 
5-day plot - Wind Speed
WSPD
kts
5-day plot - Wind Gust
GST
kts
5-day plot - Wave Height
WVHT
ft
5-day plot - Dominant Wave Period
DPD
sec
5-day plot - Average Wave Period
APD
sec
5-day plot - Mean Wave Direction
MWD
 
5-day plot - Atmospheric Pressure
PRES
in
5-day plot - Pressure Tendency
PTDY
in
5-day plot - Air Temperature
ATMP
°F
5-day plot - Water Temperature
WTMP
°F
5-day plot - Dew Point
DEWP
°F
5-day plot - Salinity
SAL
psu
5-day plot - Visibility
VIS
nmi
5-day plot - Tide (above MLLW)
TIDE
ft
2024-04-16 02:00 pm E 17 19----30.28-0.05 37.0-----
2024-04-16 01:00 pm E 18 20----30.29-0.01 36.9-----
2024-04-16 12:00 pm E 18 19----30.31-0.02 37.0-----
2024-04-16 11:00 am E 14 15----30.32+0.04 37.0-----
2024-04-16 10:00 amENE 16 17----30.30+0.06 36.9-----
2024-04-16 09:00 am E 13 14----30.32+0.08 37.2-----
2024-04-16 08:00 amENE 13 14----30.29+0.04 37.4-----
2024-04-16 07:00 amENE 14 16----30.24+0.00 37.8-----
2024-04-16 06:00 am NE 10 10----30.24+0.02 41.4-----
2024-04-16 05:00 amNNE 8 8----30.24+0.04 43.2-----
2024-04-16 04:00 am N 7 8----30.24+0.04 39.4-----
2024-04-16 03:00 am W 5 5----30.22+0.03 42.1-----
2024-04-16 02:00 amWNW 4 4----30.20+0.02 43.5-----
2024-04-16 01:00 amWNW 3 4----30.20+0.03 43.0-----
2024-04-16 12:00 amWNW 9 10----30.19+0.03 41.4-----
2024-04-15 11:00 pm NW 6 7----30.18+0.03 41.2-----
2024-04-15 10:00 pm W 10 10----30.17+0.03 42.6-----
2024-04-15 09:00 pm W 15 15----30.16+0.03 41.7-----
2024-04-15 08:00 pm W 13 13----30.15+0.02 41.5-----
2024-04-15 07:00 pm SW 5 5----30.14+0.04 40.3-----
2024-04-15 06:00 pm S 6 6----30.13+0.03 39.0-----
2024-04-15 05:00 pmSSW 7 7----30.13+0.02 39.7-----
2024-04-15 04:00 pm W 13 13----30.11+0.02 46.0-----
2024-04-15 03:00 pm W 10 10----30.10+0.03 45.0-----